Location: Atlantic Beach
(40.5890°N, 73.7290°W)
Time: 08:23:42
(UTC+00:00)

Envisat - Pass Details

Date: 26 January 2021
Orbit: 764 x 766 km, 98.1° (Epoch: 24 February)

Event Time Altitude Azimuth Distance (km) Brightness Sun altitude
Rises 10:38:17 0° 13° (NNE) 3,240 6.3 -17.4°
Reaches altitude 10° 10:40:36 10° 15° (NNE) 2,309 5.5 -17.0°
Maximum altitude 10:45:42 82° 103° (ESE) 777 3.1 -16.0°
Drops below altitude 10° 10:50:45 10° 191° (S) 2,292 5.5 -15.1°
Sets 10:53:03 0° 192° (SSW) 3,214 6.2 -14.6°
